• In Russia
  • List of Countries
  • For 7 days
  • Water Temperature
  • Satellite Maps
  • Weather Map
  • Weather Widgets
  • user-avatar
    Login

    Hourly Weather Townsville

    Today, 28 February, Tuesday

    Time Temperature Precipitation Wind Pressure Humidity
    00:00 +25°C° 0.7 mm 4 mps 752 mmHg 95%
    01:00 +25°C° 0.7 mm 4 mps 752 mmHg 96%
    02:00 +25°C° 0.4 mm 4 mps 751 mmHg 96%
    03:00 +25°C° 0.4 mm 4 mps 751 mmHg 97%
    04:00 +25°C° 0 mm 4 mps 751 mmHg 97%
    05:00 +25°C° 0.3 mm 4 mps 751 mmHg 97%
    06:00 +25°C° 0.3 mm 4 mps 752 mmHg 96%
    07:00 +25°C° 0.3 mm 4 mps 752 mmHg 96%
    08:00 +27°C° 0.1 mm 4 mps 752 mmHg 86%
    09:00 +28°C° 0.1 mm 4 mps 752 mmHg 77%
    10:00 +30°C° 0.1 mm 5 mps 752 mmHg 68%
    11:00 +32°C° 0.1 mm 5 mps 752 mmHg 62%
    12:00 +33°C° 0.1 mm 5 mps 751 mmHg 56%
    13:00 +35°C° 0.1 mm 5 mps 751 mmHg 50%
    14:00 +34°C° 0.2 mm 5 mps 751 mmHg 54%
    15:00 +33°C° 0.2 mm 5 mps 750 mmHg 58%
    16:00 +33°C° 0.2 mm 5 mps 750 mmHg 63%
    17:00 +30°C° 0.6 mm 5 mps 750 mmHg 70%
    18:00 +28°C° 0.6 mm 5 mps 750 mmHg 78%
    19:00 +27°C° 0.6 mm 5 mps 751 mmHg 86%
    20:00 +26°C° 0.5 mm 5 mps 751 mmHg 88%
    21:00 +26°C° 0.5 mm 5 mps 751 mmHg 91%
    22:00 +26°C° 0.5 mm 5 mps 752 mmHg 93%
    23:00 +25°C° 0.6 mm 5 mps 752 mmHg 95%

    Tomorrow, 1 March, Wednesday

    Time Temperature Precipitation Wind Pressure Humidity
    00:00 +25°C° 0.6 mm 5 mps 752 mmHg 96%
    01:00 +25°C° 0.6 mm 4 mps 751 mmHg 97%
    02:00 +25°C° 0.1 mm 4 mps 751 mmHg 97%
    03:00 +23°C° 0.1 mm 4 mps 751 mmHg 97%
    04:00 +23°C° 0.1 mm 4 mps 751 mmHg 97%
    05:00 +23°C° 0.1 mm 4 mps 751 mmHg 96%
    06:00 +23°C° 0.1 mm 4 mps 751 mmHg 95%
    07:00 +23°C° 0.1 mm 5 mps 752 mmHg 95%
    08:00 +26°C° 0.1 mm 5 mps 752 mmHg 84%
    09:00 +29°C° 0.1 mm 5 mps 752 mmHg 74%
    10:00 +32°C° 0.1 mm 5 mps 752 mmHg 63%
    11:00 +33°C° 0 mm 5 mps 752 mmHg 58%
    12:00 +34°C° 0 mm 5 mps 751 mmHg 53%
    13:00 +35°C° 0 mm 5 mps 750 mmHg 48%
    14:00 +35°C° 0.3 mm 5 mps 750 mmHg 54%
    15:00 +34°C° 0.3 mm 5 mps 749 mmHg 60%
    16:00 +33°C° 0.3 mm 6 mps 749 mmHg 65%
    17:00 +32°C° 0.6 mm 5 mps 749 mmHg 73%
    18:00 +29°C° 0.6 mm 5 mps 750 mmHg 80%
    19:00 +27°C° 0.6 mm 5 mps 750 mmHg 88%
    20:00 +27°C° 0.5 mm 5 mps 750 mmHg 90%
    21:00 +27°C° 0.5 mm 5 mps 751 mmHg 92%
    22:00 +26°C° 0.5 mm 5 mps 751 mmHg 93%
    23:00 +26°C° 0.4 mm 5 mps 751 mmHg 95%

    Day after tomorrow, 2 March, Thursday

    Time Temperature Precipitation Wind Pressure Humidity
    00:00 +26°C° 0.4 mm 5 mps 751 mmHg 96%
    01:00 +25°C° 0.4 mm 4 mps 751 mmHg 97%
    02:00 +25°C° 0.2 mm 4 mps 750 mmHg 97%
    03:00 +25°C° 0.2 mm 4 mps 750 mmHg 98%
    04:00 +25°C° 0.2 mm 4 mps 749 mmHg 98%
    05:00 +25°C° 0.1 mm 4 mps 750 mmHg 97%
    06:00 +25°C° 0.1 mm 5 mps 750 mmHg 97%
    07:00 +25°C° 0.1 mm 5 mps 751 mmHg 96%
    08:00 +27°C° 0.2 mm 5 mps 751 mmHg 88%
    09:00 +29°C° 0.2 mm 5 mps 751 mmHg 80%
    10:00 +32°C° 0.2 mm 5 mps 751 mmHg 72%
    11:00 +33°C° 1.8 mm 5 mps 751 mmHg 69%
    12:00 +33°C° 1.8 mm 5 mps 750 mmHg 67%
    13:00 +34°C° 1.8 mm 5 mps 749 mmHg 64%
    14:00 +34°C° 1.7 mm 5 mps 749 mmHg 67%
    15:00 +33°C° 1.7 mm 5 mps 749 mmHg 69%
    16:00 +33°C° 1.7 mm 5 mps 748 mmHg 71%
    17:00 +32°C° 0.9 mm 5 mps 749 mmHg 77%
    18:00 +29°C° 0.9 mm 5 mps 749 mmHg 82%
    19:00 +28°C° 0.9 mm 5 mps 750 mmHg 87%
    20:00 +27°C° 0.6 mm 4 mps 750 mmHg 89%
    21:00 +27°C° 0.6 mm 4 mps 751 mmHg 92%
    22:00 +26°C° 0.6 mm 4 mps 751 mmHg 94%
    23:00 +26°C° 0.7 mm 4 mps 751 mmHg 95%

    3 March, Friday

    Time Temperature Precipitation Wind Pressure Humidity
    00:00 +26°C° 0.7 mm 4 mps 750 mmHg 96%
    01:00 +26°C° 0.7 mm 4 mps 750 mmHg 97%
    02:00 +26°C° 1.1 mm 4 mps 750 mmHg 97%
    03:00 +26°C° 1.1 mm 4 mps 749 mmHg 97%
    04:00 +26°C° 1.1 mm 3 mps 749 mmHg 97%
    05:00 +26°C° 1 mm 3 mps 750 mmHg 96%
    06:00 +26°C° 1 mm 3 mps 750 mmHg 96%
    07:00 +26°C° 1 mm 3 mps 750 mmHg 96%
    08:00 +28°C° 0.6 mm 3 mps 751 mmHg 90%
    09:00 +29°C° 0.6 mm 3 mps 751 mmHg 84%
    10:00 +30°C° 0.6 mm 3 mps 751 mmHg 78%
    11:00 +30°C° 0.8 mm 4 mps 750 mmHg 78%
    12:00 +30°C° 0.8 mm 4 mps 750 mmHg 79%
    13:00 +30°C° 0.8 mm 4 mps 749 mmHg 79%
    14:00 +30°C° 0.1 mm 4 mps 749 mmHg 80%
    15:00 +30°C° 0.1 mm 4 mps 749 mmHg 81%
    16:00 +29°C° 0.1 mm 4 mps 748 mmHg 82%
    17:00 +28°C° 1.1 mm 3 mps 749 mmHg 85%
    18:00 +28°C° 1.1 mm 3 mps 749 mmHg 88%
    19:00 +27°C° 1.1 mm 3 mps 750 mmHg 91%
    20:00 +27°C° 0.9 mm 3 mps 750 mmHg 92%
    21:00 +27°C° 0.9 mm 3 mps 751 mmHg 93%
    22:00 +26°C° 0.9 mm 2 mps 751 mmHg 94%
    23:00 +26°C° 1.1 mm 2 mps 751 mmHg 95%

    4 March, Saturday

    Time Temperature Precipitation Wind Pressure Humidity
    00:00 +26°C° 1.1 mm 2 mps 750 mmHg 96%
    01:00 +26°C° 1.1 mm 2 mps 750 mmHg 97%
    02:00 +26°C° 1.1 mm 2 mps 750 mmHg 97%
    03:00 +26°C° 1.1 mm 2 mps 749 mmHg 97%
    04:00 +26°C° 1.1 mm 2 mps 749 mmHg 97%
    05:00 +26°C° 0.4 mm 2 mps 750 mmHg 97%
    06:00 +26°C° 0.4 mm 2 mps 750 mmHg 96%
    07:00 +26°C° 0.4 mm 2 mps 751 mmHg 96%
    08:00 +27°C° 0.4 mm 2 mps 751 mmHg 91%
    09:00 +28°C° 0.4 mm 2 mps 751 mmHg 86%
    10:00 +30°C° 0.4 mm 2 mps 751 mmHg 81%
    11:00 +30°C° 1 mm 2 mps 750 mmHg 77%
    12:00 +31°C° 1 mm 2 mps 750 mmHg 74%
    13:00 +32°C° 1 mm 2 mps 749 mmHg 71%
    14:00 +31°C° 0.8 mm 2 mps 749 mmHg 73%
    15:00 +31°C° 0.8 mm 3 mps 749 mmHg 76%
    16:00 +31°C° 0.8 mm 3 mps 748 mmHg 78%
    17:00 +29°C° 0.2 mm 3 mps 749 mmHg 82%
    18:00 +28°C° 0.2 mm 3 mps 749 mmHg 86%
    19:00 +27°C° 0.2 mm 3 mps 750 mmHg 90%
    20:00 +27°C° 0.8 mm 3 mps 750 mmHg 91%
    21:00 +27°C° 0.8 mm 4 mps 750 mmHg 92%
    22:00 +27°C° 0.8 mm 4 mps 751 mmHg 93%
    23:00 +26°C° 1.2 mm 4 mps 751 mmHg 94%

    5 March, Sunday

    Time Temperature Precipitation Wind Pressure Humidity
    00:00 +26°C° 1.2 mm 4 mps 750 mmHg 95%
    01:00 +26°C° 1.2 mm 4 mps 750 mmHg 97%
    02:00 +26°C° 1.5 mm 4 mps 750 mmHg 97%
    03:00 +25°C° 1.5 mm 4 mps 750 mmHg 97%
    04:00 +25°C° 1.5 mm 4 mps 749 mmHg 98%
    05:00 +25°C° 1 mm 4 mps 750 mmHg 97%
    06:00 +25°C° 1 mm 4 mps 750 mmHg 97%
    07:00 +25°C° 1 mm 3 mps 751 mmHg 97%
    08:00 +27°C° 0.3 mm 3 mps 751 mmHg 90%
    09:00 +28°C° 0.3 mm 3 mps 751 mmHg 83%
    10:00 +30°C° 0.3 mm 3 mps 751 mmHg 77%
    11:00 +31°C° 0.8 mm 3 mps 751 mmHg 75%
    12:00 +31°C° 0.8 mm 3 mps 750 mmHg 74%
    13:00 +33°C° 0.8 mm 3 mps 750 mmHg 73%
    14:00 +31°C° 2.1 mm 3 mps 750 mmHg 79%
    15:00 +29°C° 2.1 mm 3 mps 749 mmHg 86%
    16:00 +28°C° 2.1 mm 3 mps 749 mmHg 92%
    17:00 +28°C° 1.5 mm 3 mps 749 mmHg 93%
    18:00 +27°C° 1.5 mm 3 mps 750 mmHg 94%
    19:00 +27°C° 1.5 mm 3 mps 750 mmHg 96%
    20:00 +26°C° 0.4 mm 3 mps 750 mmHg 96%
    21:00 +26°C° 0.4 mm 2 mps 751 mmHg 97%
    22:00 +26°C° 0.4 mm 2 mps 751 mmHg 97%
    23:00 +26°C° 1.1 mm 2 mps 751 mmHg 97%
    Show more